Regional Weather Roundup
Issued by NWS Raleigh/Durham, NC

Home | Current Version | Previous Version | Text Only | Print | Product List | Glossary On
Versions: 1 2 3 4 5 6 7 8 9 10 11 12 13 14 15 16 17 18 19 20 21 22 23 24 25 26 27 28 29 30 31 32 33 34 35 36 37 38 39 40 41 42 43 44 45 46 47 48 49 50
000
ASUS42 KRAH 042310
RWRRAH
NORTH CAROLINA WEATHER ROUNDUP
NATIONAL WEATHER SERVICE RALEIGH NC
700 PM EDT MON MAY 04 2015

NOTE: "FAIR" INDICATES FEW OR NO CLOUDS BELOW 12,000 FEET WITH NO
SIGNIFICANT WEATHER AND/OR OBSTRUCTIONS TO VISIBILITY.

NCZ001-053-055-056-065-067-050000-
WESTERN NORTH CAROLINA

CITY           SKY/WX    TMP DP  RH WIND       PRES   REMARKS
ASHEVILLE      SUNNY     73  47  39 S7        30.29S
JEFFERSON      CLOUDY    67  45  46 SE5       30.31S
MORGANTON      SUNNY     78  45  30 S6        30.29S
HICKORY        SUNNY     77  48  35 S9        30.24F
RUTHERFORDTON  SUNNY     77  49  37 S6        30.25S
MOUNT AIRY     CLOUDY    77  52  41 S3        30.25F
BOONE          LGT RAIN  67  46  46 S3        30.33S
$$

NCZ021-022-025-041-071-084-088-050000-
CENTRAL NORTH CAROLINA

CITY           SKY/WX    TMP DP  RH WIND       PRES   REMARKS
CHARLOTTE      MOSUNNY   78  47  33 SW7       30.25S
GREENSBORO     MOSUNNY   78  50  37 S9        30.23F
WINSTON-SALEM  SUNNY     78  49  35 S7        30.24S
RALEIGH-DURHAM MOSUNNY   77  52  41 S10       30.24F
FORT BRAGG     SUNNY     79  48  33 S6        30.24F
FAYETTEVILLE   SUNNY     80  47  31 S7        30.25S
BURLINGTON     SUNNY     79  52  38 S6        30.23F
LAURINBURG     SUNNY     80  47  31 S7        30.26S
$$

NCZ011-015-027-028-043-044-047-080-103-050000-
NORTHEASTERN NORTH CAROLINA

CITY           SKY/WX    TMP DP  RH WIND       PRES   REMARKS
ROCKY MT-WILSO SUNNY     78  50  37 S7        30.25F
GREENVILLE     SUNNY     79  50  36 S10       30.27S
WASHINGTON     SUNNY     76  51  41 S8G16     30.27F
ELIZABETH CITY CLEAR     75  49  39 S10       30.26F
MANTEO         CLEAR     70  58  66 S14       30.30S
CAPE HATTERAS  CLEAR     68  60  75 S6        30.32S
$$

NCZ078-087-090-091-093-098-101-050000-
SOUTHEASTERN NORTH CAROLINA

CITY           SKY/WX    TMP DP  RH WIND       PRES   REMARKS
LUMBERTON      SUNNY     77  52  41 S9        30.26S
GOLDSBORO      SUNNY     77  53  43 S10G17    30.25R
KINSTON        SUNNY     77  52  41 S12       30.28S
KENANSVILLE    SUNNY     74  52  45 SE7       30.29S
NEW BERN       SUNNY     74  51  44 S9        30.31S
CHERRY POINT   CLEAR     73  50  44 S13       30.32S
BEAUFORT       CLEAR     71  56  58 S6        30.31F
JACKSONVILLE   SUNNY     73  51  46 S9        30.30S
WILMINGTON     SUNNY     74  49  41 S8        30.31S
$$



USA.gov is the U.S. government's official web portal to all federal, state and local government web resources and services.